Location: Haulchin
(50.3172°N, 3.4360°E)
Time: 05:30:23
(UTC+00:00)

Cosmos 2151 Rocket - Pass Details

Date: 23 May 2024
Orbit: 614 x 639 km, 82.5° (Epoch: 19 June)

Event Time Altitude Azimuth Distance (km) Brightness Sun altitude
Rises 02:33:40 0° 350° (N) 2,946 7.7 -9.7°
Reaches altitude 10° 02:35:56 10° 351° (N) 2,029 6.8 -9.4°
Maximum altitude 02:40:27 85° 79° (E) 639 3.7 -9.0°
Drops below altitude 10° 02:44:53 10° 170° (S) 1,996 5.8 -8.5°
Sets 02:47:05 0° 170° (S) 2,894 6.6 -8.2°
